Location: Unspecified
(0.0000°N, 0.0000°E)
Time: 10:02:13
(UTC+00:00)

A-11 Canister half - Pass Details

Date: 04 August 2021
Orbit: 1515 x 1685 km, 47.2° (Epoch: 27 September)

Event Time Altitude Azimuth Distance (km) Brightness Sun altitude
Rises 13:22:46 0° 228° (SW) 4,659 11.6 64.5°
Reaches altitude 10° 13:25:49 10° 231° (SW) 3,684 11.2 64.0°
Maximum altitude 13:34:57 63° 310° (NW) 1,699 15.2 62.2°
Drops below altitude 10° 13:44:21 10° 29° (NNE) 3,780 11.2 60.4°
Sets 13:47:33 0° 33° (NNE) 4,788 11.6 59.7°
